FW9287 Weather Reports


Display with metric or nautical units.
time (UTC)temp
F
wind
direction
speed
MPH
gust
MPH
rain 1hr
in
rain 24hr
in
rain mn
in
humidity
%
barometer
mb
20260504193716 71 128 3.0 10.0 0.00 0.00 0.00 30 914.5
20260504193609 71 151 3.0 10.0 0.00 0.00 0.00 30 914.6
20260504193504 71 86 3.0 10.0 0.00 0.00 0.00 31 914.7
20260504193401 71 120 3.0 10.0 0.00 0.00 0.00 30 914.7
20260504193257 71 150 3.0 10.0 0.00 0.00 0.00 30 914.6
20260504193152 71 178 3.0 10.0 0.00 0.00 0.00 30 914.6
20260504193049 71 160 3.0 10.0 0.00 0.00 0.00 30 914.6
20260504192943 71 142 3.0 10.0 0.00 0.00 0.00 30 914.7
20260504192837 71 184 3.0 10.0 0.00 0.00 0.00 30 914.8
20260504192734 71 130 2.0 8.0 0.00 0.00 0.00 31 914.7
20260504192628 71 141 2.0 8.0 0.00 0.00 0.00 30 914.7
20260504192524 71 191 2.0 8.0 0.00 0.00 0.00 30 914.7
20260504192417 71 169 2.0 8.0 0.00 0.00 0.00 30 914.7
20260504192054 71 129 2.0 7.0 0.00 0.00 0.00 31 914.7
20260504191950 71 158 2.0 8.0 0.00 0.00 0.00 31 914.6
20260504191847 70 121 2.0 8.0 0.00 0.00 0.00 30 914.7
20260504191743 70 148 3.0 8.0 0.00 0.00 0.00 30 914.7
20260504191638 70 133 3.0 8.0 0.00 0.00 0.00 31 914.8
20260504191310 70 176 3.0 8.0 0.00 0.00 0.00 30 914.7
20260504191203 70 164 3.0 8.0 0.00 0.00 0.00 30 914.8
20260504191058 70 137 3.0 8.0 0.00 0.00 0.00 30 914.8
20260504190955 70 143 3.0 8.0 0.00 0.00 0.00 30 914.9
20260504190854 70 198 3.0 8.0 0.00 0.00 0.00 30 914.9
20260504190747 70 209 2.0 8.0 0.00 0.00 0.00 30 914.9
20260504190640 70 139 2.0 8.0 0.00 0.00 0.00 30 914.8
20260504190313 70 142 2.0 8.0 0.00 0.00 0.00 30 914.8
20260504190209 70 198 2.0 8.0 0.00 0.00 0.00 30 914.9
20260504190106 70 63 2.0 8.0 0.00 0.00 0.00 30 914.9
20260504190002 70 169 2.0 8.0 0.00 0.00 0.00 30 914.9
20260504185854 70 146 2.0 7.0 0.00 0.00 0.00 30 914.9
20260504185749 70 81 2.0 7.0 0.00 0.00 0.00 30 914.9
20260504185644 70 157 2.0 7.0 0.00 0.00 0.00 30 914.9
20260504185541 70 144 2.0 7.0 0.00 0.00 0.00 30 914.9
20260504185217 69 155 2.0 9.0 0.00 0.00 0.00 31 914.9
20260504185109 69 139 3.0 9.0 0.00 0.00 0.00 30 914.9
20260504185005 69 141 3.0 9.0 0.00 0.00 0.00 30 914.9
20260504184901 69 182 3.0 9.0 0.00 0.00 0.00 30 914.9
20260504184316 69 149 4.0 10.0 0.00 0.00 0.00 30 914.9
20260504184211 69 174 4.0 10.0 0.00 0.00 0.00 31 915.0
20260504184109 69 154 4.0 10.0 0.00 0.00 0.00 31 915.0
20260504184006 69 147 3.0 10.0 0.00 0.00 0.00 31 915.0
20260504183858 68 155 3.0 10.0 0.00 0.00 0.00 31 915.0
20260504183751 68 160 3.0 10.0 0.00 0.00 0.00 31 915.0
20260504183648 68 173 3.0 10.0 0.00 0.00 0.00 30 915.1
20260504183545 68 161 3.0 10.0 0.00 0.00 0.00 30 915.0
20260504183436 68 153 3.0 11.0 0.00 0.00 0.00 31 915.0
20260504183329 68 164 3.0 11.0 0.00 0.00 0.00 31 915.0
20260504182740 67 160 4.0 11.0 0.00 0.00 0.00 33 915.0
20260504182634 67 139 4.0 11.0 0.00 0.00 0.00 33 915.0
20260504182531 67 182 4.0 11.0 0.00 0.00 0.00 34 915.0
20260504182427 67 179 4.0 11.0 0.00 0.00 0.00 34 915.0
20260504182324 67 173 4.0 11.0 0.00 0.00 0.00 34 914.9
20260504182218 67 166 4.0 11.0 0.00 0.00 0.00 34 915.1
20260504182113 67 133 4.0 11.0 0.00 0.00 0.00 34 915.1
20260504182009 67 171 4.0 11.0 0.00 0.00 0.00 34 915.1
20260504181903 67 161 4.0 11.0 0.00 0.00 0.00 34 915.1
20260504181759 67 130 4.0 11.0 0.00 0.00 0.00 34 915.0
20260504181654 67 198 3.0 11.0 0.00 0.00 0.00 36 915.1
20260504181547 67 163 3.0 11.0 0.00 0.00 0.00 35 915.1
20260504181444 67 213 3.0 9.0 0.00 0.00 0.00 35 915.1
20260504181339 67 170 3.0 9.0 0.00 0.00 0.00 35 915.1
20260504181234 67 161 3.0 9.0 0.00 0.00 0.00 36 915.1
20260504181129 67 173 3.0 9.0 0.00 0.00 0.00 36 915.1
20260504180316 67 186 4.0 9.0 0.00 0.00 0.00 37 915.1
20260504180211 67 171 4.0 9.0 0.00 0.00 0.00 37 915.0
20260504175844 67 218 4.0 9.0 0.00 0.00 0.00 37 915.0
20260504175739 67 169 4.0 9.0 0.00 0.00 0.00 37 915.0
20260504175637 67 165 4.0 9.0 0.00 0.00 0.00 36 915.0
20260504175533 67 180 4.0 9.0 0.00 0.00 0.00 37 915.0
20260504175208 67 152 4.0 9.0 0.00 0.00 0.00 37 915.0
20260504175106 67 182 4.0 9.0 0.00 0.00 0.00 37 915.0
20260504175001 67 197 3.0 9.0 0.00 0.00 0.00 37 914.9
20260504174855 67 152 3.0 9.0 0.00 0.00 0.00 37 914.9
20260504174751 67 232 3.0 9.0 0.00 0.00 0.00 37 914.9
20260504174646 67 171 3.0 9.0 0.00 0.00 0.00 37 914.9
20260504174318 67 153 2.0 8.0 0.00 0.00 0.00 37 915.0
20260504174214 67 150 2.0 8.0 0.00 0.00 0.00 37 915.0
20260504174112 67 150 2.0 9.0 0.00 0.00 0.00 37 915.0
20260504173750 67 134 2.0 9.0 0.00 0.00 0.00 37 915.0
20260504173645 67 128 2.0 9.0 0.00 0.00 0.00 37 915.1
20260504173544 67 182 2.0 9.0 0.00 0.00 0.00 37 915.1
20260504173437 67 192 2.0 9.0 0.00 0.00 0.00 37 915.1
20260504173332 67 126 1.0 9.0 0.00 0.00 0.00 37 915.1
20260504173226 66 140 1.0 9.0 0.00 0.00 0.00 37 915.1
20260504173120 66 148 1.0 9.0 0.00 0.00 0.00 38 915.0
20260504173015 66 113 1.0 9.0 0.00 0.00 0.00 37 915.1
20260504172913 66 138 1.0 9.0 0.00 0.00 0.00 38 915.1
20260504172806 66 136 1.0 9.0 0.00 0.00 0.00 39 915.1
20260504172659 66 95 1.0 9.0 0.00 0.00 0.00 40 915.1
20260504172552 66 132 2.0 9.0 0.00 0.00 0.00 40 915.1
20260504172447 65 165 1.0 9.0 0.00 0.00 0.00 39 915.1
20260504172344 65 148 1.0 9.0 0.00 0.00 0.00 39 915.1
20260504172237 65 144 1.0 9.0 0.00 0.00 0.00 39 915.0
20260504172133 65 150 1.0 9.0 0.00 0.00 0.00 40 915.0
20260504172029 65 132 1.0 7.0 0.00 0.00 0.00 41 915.0
20260504171923 65 175 1.0 7.0 0.00 0.00 0.00 41 915.1
20260504171816 65 145 1.0 7.0 0.00 0.00 0.00 41 915.1
20260504171713 65 97 1.0 7.0 0.00 0.00 0.00 41 915.1
20260504171607 64 134 1.0 7.0 0.00 0.00 0.00 43 915.1
20260504171505 64 101 1.0 5.0 0.00 0.00 0.00 42 915.1
20260504171359 64 146 1.0 5.0 0.00 0.00 0.00 42 915.1
20260504171257 64 148 1.0 5.0 0.00 0.00 0.00 42 915.1
20260504171150 64 186 0.0 5.0 0.00 0.00 0.00 42 915.0
20260504171046 64 156 0.0 8.0 0.00 0.00 0.00 42 915.1
20260504170505 63 142 1.0 8.0 0.00 0.00 0.00 44 915.1
20260504170400 63 140 1.0 8.0 0.00 0.00 0.00 44 915.1
20260504170255 63 126 2.0 8.0 0.00 0.00 0.00 44 915.1
20260504170151 62 126 2.0 8.0 0.00 0.00 0.00 44 915.1
20260504160354 61 137 2.0 9.0 0.00 0.00 0.00 46 914.8
20260504160250 61 139 2.0 9.0 0.00 0.00 0.00 47 914.7
20260504160142 61 126 2.0 9.0 0.00 0.00 0.00 47 914.7
20260504150824 60 161 1.0 4.0 0.00 0.00 0.00 49 914.6
20260504150718 60 126 1.0 4.0 0.00 0.00 0.00 49 914.6
20260504150611 60 141 1.0 4.0 0.00 0.00 0.00 50 914.5
20260504150249 60 117 1.0 4.0 0.00 0.00 0.00 51 914.5
20260504150144 59 132 1.0 4.0 0.00 0.00 0.00 50 914.6
20260504141306 57 175 1.0 6.0 0.00 0.00 0.00 55 914.2
20260504141159 57 110 1.0 9.0 0.00 0.00 0.00 55 914.2
20260504140835 57 133 1.0 9.0 0.00 0.00 0.00 55 914.3
20260504140732 57 107 1.0 9.0 0.00 0.00 0.00 55 914.2
20260504140629 57 178 1.0 9.0 0.00 0.00 0.00 55 914.2
20260504140522 57 128 1.0 9.0 0.00 0.00 0.00 56 914.1
20260504140417 57 134 1.0 9.0 0.00 0.00 0.00 56 914.0
20260504140315 56 103 1.0 9.0 0.00 0.00 0.00 56 914.0
20260504130700 56 132 0.0 5.0 0.00 0.00 0.00 55 913.9
20260504130552 56 178 0.0 5.0 0.00 0.00 0.00 55 913.9
20260504130445 56 214 0.0 5.0 0.00 0.00 0.00 55 913.9
20260504130338 56 142 0.0 4.0 0.00 0.00 0.00 55 913.9
20260504130231 56 121 0.0 4.0 0.00 0.00 0.00 54 913.9
20260504130126 56 141 1.0 4.0 0.00 0.00 0.00 54 913.9
20260504120247 57 109 1.0 8.0 0.00 0.00 0.00 51 913.6
20260504120145 57 126 1.0 8.0 0.00 0.00 0.00 51 913.6
20260504110715 58 146 0.0 3.0 0.00 0.00 0.00 46 913.4
20260504110608 58 139 0.0 3.0 0.00 0.00 0.00 46 913.4
20260504110504 58 125 0.0 3.0 0.00 0.00 0.00 46 913.4
20260504110357 59 132 0.0 3.0 0.00 0.00 0.00 46 913.4
20260504110250 59 132 0.0 1.0 0.00 0.00 0.00 45 913.4
20260504110143 59 130 0.0 1.0 0.00 0.00 0.00 45 913.4
20260504100515 61 110 1.0 9.0 0.00 0.00 0.00 42 913.3
20260504100413 61 111 1.0 9.0 0.00 0.00 0.00 41 913.2
20260504100310 61 82 1.0 9.0 0.00 0.00 0.00 41 913.2
20260504100208 61 99 1.0 9.0 0.00 0.00 0.00 41 913.2
20260504081927 64 97 3.0 10.0 0.00 0.00 0.00 33 913.5
20260504081820 64 92 3.0 10.0 0.00 0.00 0.00 33 913.4
20260504081718 64 74 3.0 10.0 0.00 0.00 0.00 33 913.4
20260504081349 64 86 2.0 9.0 0.00 0.00 0.00 33 913.4
20260504081243 64 124 2.0 9.0 0.00 0.00 0.00 32 913.4
20260504081140 64 96 2.0 8.0 0.00 0.00 0.00 32 913.4
20260504081034 64 106 2.0 8.0 0.00 0.00 0.00 32 913.4
20260504080928 64 109 2.0 8.0 0.00 0.00 0.00 32 913.4
20260504080821 64 113 3.0 8.0 0.00 0.00 0.00 32 913.3
20260504080717 64 93 3.0 8.0 0.00 0.00 0.00 31 913.4
20260504080614 64 91 3.0 8.0 0.00 0.00 0.00 31 913.4
20260504080507 64 88 3.0 10.0 0.00 0.00 0.00 31 913.4
20260504080400 64 82 3.0 10.0 0.00 0.00 0.00 31 913.3
20260504070214 67 106 2.0 7.0 0.00 0.00 0.00 23 912.6
20260504070112 68 113 1.0 6.0 0.00 0.00 0.00 23 912.6
20260504060147 69 126 0.0 4.0 0.00 0.00 0.00 30 912.0
20260504050501 71 143 0.0 0.0 0.00 0.00 0.00 26 912.3
20260504050357 71 143 0.0 1.0 0.00 0.00 0.00 26 912.2
20260504045923 71 143 0.0 2.0 0.00 0.00 0.00 26 912.3
20260504045820 71 141 0.0 2.0 0.00 0.00 0.00 26 912.3
20260504045714 71 141 0.0 2.0 0.00 0.00 0.00 26 912.3
20260504045352 72 142 0.0 2.0 0.00 0.00 0.00 26 912.2
20260504045250 72 134 0.0 2.0 0.00 0.00 0.00 26 912.2
20260504045145 72 128 0.0 2.0 0.00 0.00 0.00 26 912.2
20260504045039 72 93 0.0 2.0 0.00 0.00 0.00 26 912.2
20260504044932 72 98 0.0 0.0 0.00 0.00 0.00 26 912.2
20260504044826 72 105 0.0 0.0 0.00 0.00 0.00 26 912.2
20260504044722 72 105 0.0 0.0 0.00 0.00 0.00 26 912.1
20260504044354 72 105 0.0 0.0 0.00 0.00 0.00 25 912.1
20260504044250 72 105 0.0 1.0 0.00 0.00 0.00 25 912.2
20260504044145 72 105 0.0 1.0 0.00 0.00 0.00 26 912.1
20260504044041 72 87 0.0 1.0 0.00 0.00 0.00 26 912.2
20260504043936 72 88 0.0 1.0 0.00 0.00 0.00 26 912.1
20260504043834 72 87 0.0 1.0 0.00 0.00 0.00 25 912.1
20260504043731 72 87 0.0 1.0 0.00 0.00 0.00 25 912.2
20260504043628 72 89 0.0 1.0 0.00 0.00 0.00 25 912.2
20260504043525 72 89 0.0 1.0 0.00 0.00 0.00 25 912.2
20260504043202 73 89 0.0 0.0 0.00 0.00 0.00 25 912.3
20260504043057 73 89 0.0 0.0 0.00 0.00 0.00 25 912.2
20260504042955 73 89 0.0 0.0 0.00 0.00 0.00 25 912.2
20260504042847 73 89 0.0 0.0 0.00 0.00 0.00 25 912.2
20260504042739 73 77 0.0 2.0 0.00 0.00 0.00 25 912.1
20260504042634 73 78 0.0 2.0 0.00 0.00 0.00 25 912.1
20260504042530 73 76 0.0 2.0 0.00 0.00 0.00 24 912.1
20260504042424 73 76 0.0 2.0 0.00 0.00 0.00 25 912.0
20260504042319 73 76 0.0 2.0 0.00 0.00 0.00 25 912.0
20260504042216 73 87 0.0 2.0 0.00 0.00 0.00 26 912.1
20260504042114 73 54 0.0 0.0 0.00 0.00 0.00 26 912.1
20260504041531 73 155 0.0 4.0 0.00 0.00 0.00 26 912.1
20260504041424 73 155 0.0 4.0 0.00 0.00 0.00 26 912.1
20260504041321 73 179 0.0 4.0 0.00 0.00 0.00 26 912.0
20260504041218 73 150 0.0 4.0 0.00 0.00 0.00 26 912.0
20260504041114 73 120 0.0 4.0 0.00 0.00 0.00 22 912.0
20260504041011 73 90 0.0 4.0 0.00 0.00 0.00 22 912.0
20260504040647 74 96 0.0 3.0 0.00 0.00 0.00 22 912.0
20260504040543 74 86 0.0 3.0 0.00 0.00 0.00 22 911.9
20260504040436 74 80 0.0 3.0 0.00 0.00 0.00 21 911.9
20260504040329 74 81 0.0 3.0 0.00 0.00 0.00 21 911.8
20260504040222 74 78 0.0 3.0 0.00 0.00 0.00 21 911.8
20260504040115 74 86 0.0 3.0 0.00 0.00 0.00 21 911.8
20260504035755 74 69 0.0 3.0 0.00 0.00 0.00 19 911.6
20260504035649 74 59 0.0 3.0 0.00 0.00 0.00 19 911.5
20260504035547 74 57 0.0 3.0 0.00 0.00 0.00 18 911.5
20260504035443 74 66 0.0 3.0 0.00 0.00 0.00 18 911.5
20260504035337 74 68 0.0 3.0 0.00 0.00 0.00 18 911.4
20260504035013 74 68 0.0 3.0 0.00 0.00 0.00 18 911.4
20260504034908 75 63 0.0 3.0 0.00 0.00 0.00 20 911.4
20260504034804 75 46 0.0 3.0 0.00 0.00 0.00 19 911.4
20260504034657 75 46 0.0 3.0 0.00 0.00 0.00 19 911.4
20260504034551 75 132 0.0 1.0 0.00 0.00 0.00 19 911.5
20260504034444 75 158 0.0 1.0 0.00 0.00 0.00 19 911.5
20260504034336 75 158 0.0 1.0 0.00 0.00 0.00 19 911.4
20260504034230 75 157 0.0 1.0 0.00 0.00 0.00 19 911.4
20260504034122 75 157 0.0 1.0 0.00 0.00 0.00 19 911.4
20260504033758 75 134 0.0 2.0 0.00 0.00 0.00 18 911.3
20260504033655 75 134 0.0 2.0 0.00 0.00 0.00 18 911.3
20260504033548 75 167 0.0 2.0 0.00 0.00 0.00 18 911.3
20260504033444 75 169 0.0 2.0 0.00 0.00 0.00 18 911.3
20260504033341 75 169 0.0 2.0 0.00 0.00 0.00 17 911.3
20260504033235 75 119 0.0 1.0 0.00 0.00 0.00 18 911.2
20260504033130 76 144 0.0 1.0 0.00 0.00 0.00 17 911.2
20260504033025 76 144 0.0 1.0 0.00 0.00 0.00 17 911.2
20260504032702 76 129 0.0 1.0 0.00 0.00 0.00 17 911.0
20260504032559 76 184 0.0 1.0 0.00 0.00 0.00 18 911.0
20260504032457 76 130 0.0 0.0 0.00 0.00 0.00 17 911.1
20260504032350 76 130 0.0 0.0 0.00 0.00 0.00 18 911.0
20260504032247 76 130 0.0 0.0 0.00 0.00 0.00 18 910.9
20260504031917 76 128 0.0 3.0 0.00 0.00 0.00 17 910.7
20260504031812 76 126 0.0 3.0 0.00 0.00 0.00 17 910.6
20260504031706 76 146 0.0 3.0 0.00 0.00 0.00 17 910.6
20260504031602 76 146 0.0 3.0 0.00 0.00 0.00 17 910.6
20260504031458 76 89 0.0 3.0 0.00 0.00 0.00 17 910.6
20260504031351 77 87 0.0 3.0 0.00 0.00 0.00 17 910.5
20260504031244 77 87 0.0 3.0 0.00 0.00 0.00 17 910.5
20260504030921 77 128 0.0 0.0 0.00 0.00 0.00 17 910.4
20260504030818 77 128 0.0 0.0 0.00 0.00 0.00 17 910.4
20260504030456 77 128 0.0 1.0 0.00 0.00 0.00 17 910.5
20260504030134 77 163 0.0 0.0 0.00 0.00 0.00 17 910.5
20260504030030 77 163 0.0 0.0 0.00 0.00 0.00 17 910.4
20260504025925 77 163 0.0 3.0 0.00 0.00 0.00 17 910.4
20260504025819 77 163 0.0 3.0 0.00 0.00 0.00 17 910.5
20260504025457 77 180 1.0 2.0 0.00 0.00 0.00 16 910.4
20260504025350 78 167 1.0 2.0 0.00 0.00 0.00 16 910.4
20260504025245 78 178 1.0 0.0 0.00 0.00 0.00 16 910.3
20260504025139 78 178 1.0 5.0 0.00 0.00 0.00 16 910.3
20260504024812 78 215 2.0 9.0 0.00 0.00 0.00 16 910.4
20260504024705 78 211 2.0 9.0 0.00 0.00 0.00 16 910.3
20260504024558 78 151 2.0 9.0 0.00 0.00 0.00 16 910.3
20260504024456 78 204 2.0 9.0 0.00 0.00 0.00 16 910.3
20260504024349 78 186 2.0 9.0 0.00 0.00 0.00 16 910.3
20260504024242 78 180 3.0 9.0 0.00 0.00 0.00 16 910.2
20260504023216 79 157 3.0 12.0 0.00 0.00 0.00 15 910.2
20260504023109 79 194 3.0 12.0 0.00 0.00 0.00 15 910.2
20260504023001 79 196 4.0 12.0 0.00 0.00 0.00 15 910.2
20260504022636 79 196 4.0 12.0 0.00 0.00 0.00 15 910.2
20260504022529 79 175 4.0 12.0 0.00 0.00 0.00 15 910.1
20260504022202 79 191 4.0 12.0 0.00 0.00 0.00 15 910.1
20260504021833 79 186 4.0 9.0 0.00 0.00 0.00 15 910.1
20260504021727 80 184 5.0 9.0 0.00 0.00 0.00 15 910.0
20260504021622 80 159 5.0 13.0 0.00 0.00 0.00 15 910.1
20260504021037 80 199 6.0 13.0 0.00 0.00 0.00 15 910.0
20260504020714 80 223 6.0 14.0 0.00 0.00 0.00 15 910.0
20260504020607 80 206 6.0 14.0 0.00 0.00 0.00 15 910.0
20260504020503 81 186 6.0 14.0 0.00 0.00 0.00 15 910.0
20260504020136 81 172 6.0 14.0 0.00 0.00 0.00 15 910.0
20260504015809 81 209 5.0 14.0 0.00 0.00 0.00 15 909.9
20260504015442 81 182 5.0 14.0 0.00 0.00 0.00 15 909.9
20260504015335 82 186 6.0 14.0 0.00 0.00 0.00 15 909.9
20260504015232 82 229 6.0 14.0 0.00 0.00 0.00 15 909.9
20260504015127 82 162 6.0 14.0 0.00 0.00 0.00 15 909.9
20260504015022 82 176 6.0 14.0 0.00 0.00 0.00 15 910.0
20260504014917 82 188 6.0 14.0 0.00 0.00 0.00 15 909.9
20260504014814 82 180 6.0 14.0 0.00 0.00 0.00 15 909.9
20260504014711 82 188 6.0 14.0 0.00 0.00 0.00 15 909.9
20260504014607 82 186 7.0 14.0 0.00 0.00 0.00 15 909.9
20260504014459 82 203 7.0 14.0 0.00 0.00 0.00 15 909.9
20260504014357 82 218 7.0 14.0 0.00 0.00 0.00 15 909.9
20260504014250 83 185 7.0 14.0 0.00 0.00 0.00 15 909.8
20260504014143 83 217 7.0 14.0 0.00 0.00 0.00 15 909.8
20260504014040 83 194 6.0 14.0 0.00 0.00 0.00 15 909.8
20260504013934 83 211 6.0 14.0 0.00 0.00 0.00 15 909.8
20260504013832 83 207 6.0 15.0 0.00 0.00 0.00 15 909.8
20260504013729 83 222 6.0 15.0 0.00 0.00 0.00 15 909.7
20260504013623 83 200 6.0 15.0 0.00 0.00 0.00 15 909.8
20260504013520 83 171 5.0 15.0 0.00 0.00 0.00 15 909.8
20260504013414 83 158 5.0 15.0 0.00 0.00 0.00 15 909.8
20260504013310 83 198 5.0 15.0 0.00 0.00 0.00 15 909.7
20260504013203 84 203 6.0 15.0 0.00 0.00 0.00 15 909.7
20260504013100 84 181 6.0 15.0 0.00 0.00 0.00 15 909.8
20260504012957 84 188 6.0 15.0 0.00 0.00 0.00 15 909.7
20260504012849 84 202 6.0 15.0 0.00 0.00 0.00 15 909.7
20260504012746 84 217 6.0 15.0 0.00 0.00 0.00 15 909.7
20260504012640 84 221 6.0 15.0 0.00 0.00 0.00 15 909.8
20260504012534 84 205 6.0 15.0 0.00 0.00 0.00 15 909.7
20260504012428 84 205 6.0 15.0 0.00 0.00 0.00 15 909.8
20260504012325 84 184 6.0 15.0 0.00 0.00 0.00 15 909.7
20260504012218 84 188 6.0 15.0 0.00 0.00 0.00 15 909.7
20260504012113 84 203 5.0 15.0 0.00 0.00 0.00 15 909.7
20260504012006 84 186 5.0 15.0 0.00 0.00 0.00 15 909.6
20260504011902 84 202 4.0 15.0 0.00 0.00 0.00 14 909.6
20260504011543 85 196 3.0 11.0 0.00 0.00 0.00 15 909.6
20260504011437 85 176 3.0 11.0 0.00 0.00 0.00 14 909.5
20260504011330 84 194 4.0 16.0 0.00 0.00 0.00 14 909.6
20260504011006 84 200 6.0 16.0 0.00 0.00 0.00 13 909.6
20260504010903 84 146 6.0 16.0 0.00 0.00 0.00 13 909.6
20260504010541 84 187 8.0 16.0 0.00 0.00 0.00 14 909.8
20260504010433 84 189 9.0 16.0 0.00 0.00 0.00 14 909.7
20260504010329 84 215 8.0 16.0 0.00 0.00 0.00 14 909.8
20260504010223 84 218 8.0 16.0 0.00 0.00 0.00 14 909.8
20260504005859 84 196 8.0 16.0 0.00 0.00 0.00 14 909.8
20260504005753 84 212 8.0 16.0 0.00 0.00 0.00 14 909.8
20260504005432 84 232 7.0 16.0 0.00 0.00 0.00 14 909.9
20260504005329 84 200 7.0 18.0 0.00 0.00 0.00 14 909.9
20260504005227 84 186 7.0 18.0 0.00 0.00 0.00 14 909.9
20260504005120 84 195 7.0 18.0 0.00 0.00 0.00 14 910.0
20260504005014 84 162 7.0 18.0 0.00 0.00 0.00 14 910.0
20260504004912 84 184 6.0 18.0 0.00 0.00 0.00 14 909.9
20260504004809 84 162 6.0 18.0 0.00 0.00 0.00 14 909.9
20260504004705 84 162 6.0 18.0 0.00 0.00 0.00 14 910.0
20260504004600 84 177 6.0 18.0 0.00 0.00 0.00 14 910.0
20260504004455 84 167 6.0 18.0 0.00 0.00 0.00 14 910.1
20260504004351 84 180 6.0 18.0 0.00 0.00 0.00 14 910.1
20260504004025 84 164 6.0 18.0 0.00 0.00 0.00 14 910.0
20260504003920 84 163 6.0 18.0 0.00 0.00 0.00 14 910.1
20260504003813 84 150 5.0 18.0 0.00 0.00 0.00 14 910.0
20260504003706 84 152 5.0 18.0 0.00 0.00 0.00 14 910.0
20260504002859 84 187 6.0 16.0 0.00 0.00 0.00 14 910.1
20260504002751 84 156 6.0 16.0 0.00 0.00 0.00 14 910.1
20260504002648 84 189 7.0 16.0 0.00 0.00 0.00 14 910.1
20260504002325 84 196 7.0 16.0 0.00 0.00 0.00 14 910.2
20260504002218 84 145 7.0 16.0 0.00 0.00 0.00 14 910.1
20260504002112 84 150 7.0 16.0 0.00 0.00 0.00 14 910.1
20260504002006 84 203 6.0 16.0 0.00 0.00 0.00 14 910.1
20260504001901 84 192 6.0 16.0 0.00 0.00 0.00 14 910.0
20260504001754 84 175 5.0 15.0 0.00 0.00 0.00 14 910.0
20260504001432 84 178 5.0 15.0 0.00 0.00 0.00 13 910.1
20260504001326 84 188 5.0 15.0 0.00 0.00 0.00 13 910.1
20260504001221 84 190 5.0 15.0 0.00 0.00 0.00 13 910.1
20260504001118 84 166 5.0 15.0 0.00 0.00 0.00 13 910.1
20260504001011 84 150 5.0 15.0 0.00 0.00 0.00 13 910.1
20260504000649 84 161 5.0 15.0 0.00 0.00 0.00 13 910.1
20260504000322 84 159 5.0 15.0 0.00 0.00 0.00 13 910.2
20260504000219 84 186 5.0 15.0 0.00 0.00 0.00 13 910.2
20260504000114 84 248 5.0 15.0 0.00 0.00 0.00 13 910.2
20260503235748 84 155 5.0 12.0 0.00 0.00 0.00 13 910.2
20260503235424 84 136 5.0 20.0 0.00 0.00 0.00 13 910.2
20260503235322 84 187 5.0 20.0 0.00 0.00 0.00 13 910.2
20260503235217 84 184 5.0 20.0 0.00 0.00 0.00 13 910.2
20260503235113 84 173 5.0 20.0 0.00 0.00 0.00 13 910.2
20260503234527 84 198 5.0 20.0 0.00 0.00 0.00 13 910.3
20260503234201 84 159 6.0 20.0 0.00 0.00 0.00 13 910.3
20260503234057 84 162 7.0 20.0 0.00 0.00 0.00 13 910.3
20260503233952 84 176 7.0 20.0 0.00 0.00 0.00 13 910.2
20260503233848 84 148 7.0 20.0 0.00 0.00 0.00 12 910.2
20260503233743 85 184 7.0 20.0 0.00 0.00 0.00 12 910.1
20260503233637 85 170 7.0 20.0 0.00 0.00 0.00 12 910.1
20260503233314 85 155 8.0 18.0 0.00 0.00 0.00 12 910.1
20260503232730 85 209 8.0 21.0 0.00 0.00 0.00 12 910.1
20260503232623 85 157 8.0 21.0 0.00 0.00 0.00 12 910.1
20260503232518 85 173 8.0 21.0 0.00 0.00 0.00 12 910.1
20260503232414 85 135 8.0 21.0 0.00 0.00 0.00 12 910.1
20260503232309 86 173 8.0 21.0 0.00 0.00 0.00 12 910.1
20260503232204 86 185 8.0 21.0 0.00 0.00 0.00 12 910.1
20260503232100 86 180 8.0 21.0 0.00 0.00 0.00 11 910.1
20260503231956 86 180 8.0 21.0 0.00 0.00 0.00 11 910.1
20260503231853 86 130 8.0 21.0 0.00 0.00 0.00 12 910.1
20260503231745 87 172 8.0 21.0 0.00 0.00 0.00 11 910.1
20260503230937 88 191 8.0 20.0 0.00 0.00 0.00 11 910.1
20260503230835 88 169 8.0 20.0 0.00 0.00 0.00 11 910.0
20260503230513 88 211 8.0 20.0 0.00 0.00 0.00 12 910.0
20260503230410 88 173 8.0 20.0 0.00 0.00 0.00 12 910.0
20260503230050 88 170 7.0 20.0 0.00 0.00 0.00 12 909.9
20260503225946 88 192 7.0 17.0 0.00 0.00 0.00 12 910.0
20260503225406 88 205 6.0 14.0 0.00 0.00 0.00 12 910.1
20260503225300 88 188 6.0 14.0 0.00 0.00 0.00 12 910.1
20260503225156 88 198 6.0 12.0 0.00 0.00 0.00 12 910.1
20260503225054 88 182 5.0 12.0 0.00 0.00 0.00 12 910.1
20260503224949 88 202 5.0 12.0 0.00 0.00 0.00 12 910.0
20260503224841 88 184 5.0 11.0 0.00 0.00 0.00 12 910.1
20260503224512 88 184 5.0 21.0 0.00 0.00 0.00 12 910.1
20260503224406 88 199 5.0 21.0 0.00 0.00 0.00 12 910.2
20260503224303 88 175 5.0 21.0 0.00 0.00 0.00 12 910.2
20260503224156 88 173 6.0 21.0 0.00 0.00 0.00 12 910.3
20260503224054 88 167 6.0 21.0 0.00 0.00 0.00 12 910.3
20260503223731 88 159 7.0 21.0 0.00 0.00 0.00 12 910.4
20260503223628 88 194 7.0 21.0 0.00 0.00 0.00 12 910.3
20260503223305 88 173 7.0 21.0 0.00 0.00 0.00 12 910.4
20260503223158 88 183 7.0 21.0 0.00 0.00 0.00 12 910.4
20260503223056 88 155 6.0 21.0 0.00 0.00 0.00 12 910.5
20260503222952 88 179 6.0 21.0 0.00 0.00 0.00 12 910.4
20260503222849 88 182 6.0 21.0 0.00 0.00 0.00 12 910.4
20260503222745 88 168 6.0 21.0 0.00 0.00 0.00 12 910.3
20260503222423 88 181 6.0 16.0 0.00 0.00 0.00 12 910.5
20260503222320 88 173 6.0 16.0 0.00 0.00 0.00 12 910.5
20260503222216 88 170 6.0 16.0 0.00 0.00 0.00 12 910.5
20260503222113 88 234 6.0 16.0 0.00 0.00 0.00 12 910.6
20260503222010 88 190 5.0 16.0 0.00 0.00 0.00 12 910.6
20260503221907 88 178 5.0 16.0 0.00 0.00 0.00 12 910.6
20260503221800 88 164 4.0 16.0 0.00 0.00 0.00 12 910.6
20260503221437 88 161 3.0 20.0 0.00 0.00 0.00 12 910.7
20260503221330 88 154 2.0 20.0 0.00 0.00 0.00 12 910.7
20260503221225 88 161 2.0 20.0 0.00 0.00 0.00 12 910.6
20260503221118 88 143 2.0 20.0 0.00 0.00 0.00 13 910.7
20260503221013 88 140 2.0 20.0 0.00 0.00 0.00 12 910.8
20260503220907 88 140 2.0 20.0 0.00 0.00 0.00 12 910.8
20260503220543 88 131 5.0 20.0 0.00 0.00 0.00 12 911.0
20260503220436 88 80 6.0 20.0 0.00 0.00 0.00 12 911.0
20260503220333 88 134 6.0 20.0 0.00 0.00 0.00 12 910.9
20260503220231 88 128 7.0 20.0 0.00 0.00 0.00 12 910.9
20260503220125 87 167 7.0 20.0 0.00 0.00 0.00 12 911.0
20260503220022 87 140 7.0 20.0 0.00 0.00 0.00 12 911.0
20260503215653 87 189 8.0 20.0 0.00 0.00 0.00 12 911.2
20260503215548 87 180 8.0 20.0 0.00 0.00 0.00 12 911.2
20260503215441 87 172 8.0 18.0 0.00 0.00 0.00 12 911.1
20260503215335 87 184 8.0 18.0 0.00 0.00 0.00 13 911.1
20260503215232 87 178 8.0 18.0 0.00 0.00 0.00 12 911.1
20260503215123 87 185 8.0 18.0 0.00 0.00 0.00 12 911.1
20260503214759 88 184 7.0 18.0 0.00 0.00 0.00 12 911.2
20260503214434 88 198 5.0 13.0 0.00 0.00 0.00 12 911.2
20260503214108 88 157 4.0 13.0 0.00 0.00 0.00 12 911.2
20260503214005 88 169 5.0 13.0 0.00 0.00 0.00 12 911.1
20260503213859 88 162 5.0 13.0 0.00 0.00 0.00 12 911.2
20260503213756 88 159 5.0 13.0 0.00 0.00 0.00 12 911.3
20260503213651 88 138 5.0 13.0 0.00 0.00 0.00 12 911.2
20260503213548 88 139 5.0 13.0 0.00 0.00 0.00 12 911.3
20260503213223 88 182 6.0 13.0 0.00 0.00 0.00 12 911.4
20260503213117 88 209 6.0 13.0 0.00 0.00 0.00 12 911.4
20260503213014 88 173 6.0 13.0 0.00 0.00 0.00 12 911.4
20260503212909 88 123 6.0 13.0 0.00 0.00 0.00 12 911.3
20260503212544 88 194 7.0 13.0 0.00 0.00 0.00 12 911.4
20260503212439 88 153 6.0 13.0 0.00 0.00 0.00 12 911.4
20260503212110 88 208 6.0 13.0 0.00 0.00 0.00 12 911.4
20260503212005 88 168 6.0 13.0 0.00 0.00 0.00 12 911.5
20260503211858 88 154 6.0 13.0 0.00 0.00 0.00 12 911.5
20260503211754 88 179 5.0 13.0 0.00 0.00 0.00 12 911.5
20260503211652 88 197 5.0 12.0 0.00 0.00 0.00 12 911.5
20260503211550 88 150 5.0 12.0 0.00 0.00 0.00 12 911.5
20260503211225 88 185 5.0 12.0 0.00 0.00 0.00 12 911.5
20260503211119 87 129 5.0 12.0 0.00 0.00 0.00 12 911.6
20260503211013 87 180 5.0 12.0 0.00 0.00 0.00 12 911.6
20260503210907 87 171 5.0 12.0 0.00 0.00 0.00 12 911.5
20260503210543 87 142 3.0 10.0 0.00 0.00 0.00 13 911.5
20260503210438 86 173 2.0 10.0 0.00 0.00 0.00 13 911.5
20260503210116 86 153 1.0 6.0 0.00 0.00 0.00 13 911.6
20260503210011 86 142 1.0 6.0 0.00 0.00 0.00 13 911.6
20260503205904 85 185 1.0 6.0 0.00 0.00 0.00 13 911.7
20260503205802 85 141 1.0 6.0 0.00 0.00 0.00 13 911.8
20260503205655 85 144 1.0 8.0 0.00 0.00 0.00 13 911.7
20260503205553 85 192 1.0 8.0 0.00 0.00 0.00 14 911.7
20260503205448 85 188 2.0 8.0 0.00 0.00 0.00 13 911.8
20260503205344 85 169 2.0 8.0 0.00 0.00 0.00 13 911.8
20260503205241 85 169 2.0 8.0 0.00 0.00 0.00 13 911.8
20260503205135 85 155 2.0 8.0 0.00 0.00 0.00 13 911.8
20260503204333 85 155 2.0 9.0 0.00 0.00 0.00 13 911.9
20260503204230 85 140 2.0 9.0 0.00 0.00 0.00 13 911.9
20260503204127 86 168 2.0 9.0 0.00 0.00 0.00 13 912.0
20260503204022 86 154 2.0 9.0 0.00 0.00 0.00 13 912.0
20260503203917 86 164 3.0 9.0 0.00 0.00 0.00 13 912.0
20260503203815 86 154 3.0 9.0 0.00 0.00 0.00 13 912.1
20260503203451 86 179 2.0 11.0 0.00 0.00 0.00 13 912.2
20260503203345 86 127 3.0 11.0 0.00 0.00 0.00 13 912.2
20260503203243 86 129 3.0 11.0 0.00 0.00 0.00 13 912.1
20260503203136 86 134 3.0 11.0 0.00 0.00 0.00 13 912.1
20260503203029 86 180 4.0 11.0 0.00 0.00 0.00 13 912.1
20260503202445 87 191 4.0 11.0 0.00 0.00 0.00 13 912.3
20260503202340 87 167 4.0 11.0 0.00 0.00 0.00 13 912.3
20260503202234 87 210 4.0 11.0 0.00 0.00 0.00 13 912.4
20260503201650 87 178 3.0 8.0 0.00 0.00 0.00 13 912.5
20260503201547 86 158 3.0 11.0 0.00 0.00 0.00 13 912.5
20260503201441 86 148 4.0 11.0 0.00 0.00 0.00 13 912.5
20260503201338 86 188 4.0 11.0 0.00 0.00 0.00 13 912.5
20260503201011 86 169 5.0 11.0 0.00 0.00 0.00 13 912.5
20260503200905 86 192 5.0 11.0 0.00 0.00 0.00 13 912.5
20260503200801 86 173 5.0 11.0 0.00 0.00 0.00 13 912.6
20260503200431 86 186 5.0 11.0 0.00 0.00 0.00 13 912.6
20260503200328 86 174 5.0 11.0 0.00 0.00 0.00 13 912.5
20260503200222 86 200 4.0 11.0 0.00 0.00 0.00 13 912.6
20260503195900 87 181 3.0 11.0 0.00 0.00 0.00 12 912.6
20260503195758 87 205 3.0 11.0 0.00 0.00 0.00 13 912.6
20260503195650 86 144 3.0 11.0 0.00 0.00 0.00 13 912.6
20260503195542 86 169 2.0 8.0 0.00 0.00 0.00 13 912.6
20260503195436 86 188 2.0 7.0 0.00 0.00 0.00 13 912.6
20260503195111 86 142 2.0 7.0 0.00 0.00 0.00 13 912.7
20260503195008 86 179 2.0 9.0 0.00 0.00 0.00 13 912.7
20260503194904 86 117 2.0 9.0 0.00 0.00 0.00 13 912.7
20260503194801 86 135 2.0 9.0 0.00 0.00 0.00 13 912.8
20260503194656 86 105 2.0 9.0 0.00 0.00 0.00 13 912.8
20260503194332 86 164 2.0 9.0 0.00 0.00 0.00 13 913.0
20260503194223 86 121 2.0 9.0 0.00 0.00 0.00 13 912.9
20260503194116 86 111 2.0 9.0 0.00 0.00 0.00 13 912.9
20260503194014 86 97 2.0 10.0 0.00 0.00 0.00 13 912.8
20260503193908 86 86 2.0 10.0 0.00 0.00 0.00 13 912.9